Weather History for PACD - November, 2013

Change the Weather History Date:

Saturday, November 30, 2013

  Actual Average Record
Temperature  
Mean Temperature 26 °F 33 °F  
Max Temperature 35 °F 37 °F 51 °F (1954)
Min Temperature 17 °F 28 °F 8 °F (1945)
Degree Days  
Heating Degree Days 39 32  
Month to date heating degree days 806 913  
Since 1 July heating degree days 2516 3026  
Cooling Degree Days 0    
Month to date cooling degree days 0  
Year to date cooling degree days 0  
Moisture  
Dew Point 23 °F    
Average Humidity 0    
Maximum Humidity 0    
Minimum Humidity 0    
Precipitation  
Precipitation 0.00 in 0.16 in 2.59 in (2007)
Month to date precipitation 4.50 4.98  
Year to date precipitation 42.12 37.21  
Snow  
Snow 0.00 in 0.40 in 8.60 in (1964)
Month to date snowfall 3.6 10.2  
Since 1 July snowfall 3.6 12.6  
Since 1 September snowfall 3.6 12.6  
Snow Depth T in    
Sea Level Pressure  
Sea Level Pressure 30.40 in    
Wind  
Wind Speed 8 mph (North)    
Max Wind Speed 21 mph    
Max Gust Speed 26 mph    
Visibility 10 miles    
Events      
T = Trace of Precipitation, MM = Missing Value Source: NWS Daily Summary

Daily Weather History Graph

Daily Weather History Graph

Search for Another Location

Airport or City:

Trip Planner

Search our weather history database for the weather conditions in past years. The results will help you decide how hot, cold, wet, or windy it might be!

Date:

Astronomy

Nov. 30, 2013 Rise Set
Actual Time 9:52 AM AKST 5:26 PM AKST
Civil Twilight 9:08 AM AKST 6:10 PM AKST
Nautical Twilight 8:21 AM AKST 6:57 PM AKST
Astronomical Twilight 7:37 AM AKST 7:41 PM AKST
Moon 6:55 AM AKST (11/30) 4:18 PM AKST (11/30)
Length of Visible Light 9h 02m
Length of Day
7h 34m
Waning Crescent, 6% of the Moon is Illuminated
Nov 30
Waning Crescent
Dec 2
New
Dec 9
First Quarter
Dec 17
Full
Dec 25
Last Quarter

Hourly Weather History & Observations

Time (AKST) Temp. Windchill Dew Point Humidity Pressure Visibility Wind Dir Wind Speed Gust Speed Precip Events Conditions
12:53 AM 30.9 °F 27.5 °F 27.0 °F 85% 30.38 in 10.0 mi North 3.5 mph - N/A   Scattered Clouds
1:53 AM 34.0 °F 28.0 °F 28.0 °F 79% 30.39 in 10.0 mi North 6.9 mph - N/A   Mostly Cloudy
2:53 AM 30.2 °F 22.6 °F 23.0 °F 75% 30.37 in 10.0 mi North 8.1 mph - N/A   Scattered Clouds
3:53 AM 30.9 °F 25.2 °F 21.9 °F 69% 30.40 in 10.0 mi NNE 5.8 mph - N/A   Partly Cloudy
4:53 AM 27.0 °F - 19.9 °F 75% 30.40 in 10.0 mi Calm Calm - N/A   Partly Cloudy
5:53 AM 28.9 °F 25.2 °F 23.0 °F 78% 30.41 in 10.0 mi NNW 3.5 mph - N/A   Overcast
6:53 AM 34.0 °F 25.5 °F 24.1 °F 67% 30.41 in 10.0 mi North 11.5 mph - N/A   Scattered Clouds
7:53 AM 34.0 °F 27.2 °F 25.0 °F 70% 30.43 in 10.0 mi NNE 8.1 mph - N/A   Overcast
8:53 AM 33.1 °F 26.9 °F 25.0 °F 72% 30.44 in 10.0 mi NNE 6.9 mph - N/A   Mostly Cloudy
9:53 AM 33.1 °F 25.5 °F 25.0 °F 72% 30.44 in 10.0 mi North 9.2 mph - N/A   Mostly Cloudy
10:53 AM 33.1 °F 26.1 °F 25.0 °F 72% 30.44 in 10.0 mi North 8.1 mph - N/A   Mostly Cloudy
11:53 AM 34.0 °F 26.6 °F 26.1 °F 73% 30.44 in 10.0 mi NNE 9.2 mph - N/A   Mostly Cloudy
12:53 PM 34.0 °F 25.0 °F 25.0 °F 70% 30.43 in 10.0 mi NNE 12.7 mph - N/A   Scattered Clouds
1:53 PM 34.0 °F 25.0 °F 25.0 °F 70% 30.42 in 10.0 mi North 12.7 mph - N/A   Scattered Clouds
2:53 PM 34.0 °F 27.2 °F 24.1 °F 67% 30.42 in 10.0 mi North 8.1 mph - N/A   Scattered Clouds
3:53 PM 33.1 °F 23.9 °F 24.1 °F 70% 30.41 in 10.0 mi North 12.7 mph - N/A   Partly Cloudy
4:53 PM 32.0 °F 24.2 °F 23.0 °F 69% 30.40 in 10.0 mi North 9.2 mph - N/A   Clear
5:53 PM 30.0 °F 18.3 °F 21.9 °F 72% 30.40 in 10.0 mi North 17.3 mph - N/A   Clear
6:53 PM 30.0 °F 17.5 °F 21.9 °F 72% 30.37 in 10.0 mi NNE 19.6 mph - N/A   Clear
7:53 PM 28.9 °F 19.2 °F 21.0 °F 72% 30.38 in 10.0 mi NNE 11.5 mph - N/A   Clear
8:53 PM 27.0 °F 20.5 °F 19.9 °F 75% 30.38 in 10.0 mi NE 5.8 mph - N/A   Clear
9:53 PM 26.1 °F 19.4 °F 19.0 °F 75% 30.37 in 10.0 mi NNE 5.8 mph - N/A   Clear
10:53 PM 19.0 °F 13.9 °F 14.0 °F 81% 30.39 in 10.0 mi South 3.5 mph - N/A   Clear
11:53 PM 17.1 °F - 12.0 °F 81% 30.39 in 10.0 mi Calm Calm - N/A   Clear